TimeMST,TemperatureF,Dew PointF,Humidity,Sea Level PressureIn,VisibilityMPH,Wind Direction,Wind SpeedMPH,Gust SpeedMPH,PrecipitationIn,Events,Conditions,WindDirDegrees,DateUTC
12:53 AM,10.9,8.1,88,30.03,1.8,Calm,Calm,-,0.00,Snow,Light Snow,0,2014-01-27 07:53:00
1:19 AM,10.4,8.6,92,29.97,1.8,Calm,Calm,-,0.00,Snow,Light Snow,0,2014-01-27 08:19:00
1:27 AM,10.4,8.6,92,29.97,2.0,Calm,Calm,-,0.00,Snow,Light Snow,0,2014-01-27 08:27:00
1:53 AM,10.9,8.1,88,30.03,3.0,Calm,Calm,-,0.00,Snow,Light Snow,0,2014-01-27 08:53:00
2:53 AM,10.9,8.1,88,30.04,1.8,Calm,Calm,-,0.00,Snow,Light Snow,0,2014-01-27 09:53:00
3:03 AM,10.4,8.6,92,29.96,2.0,Calm,Calm,-,0.00,Snow,Light Snow,0,2014-01-27 10:03:00
3:29 AM,10.4,6.8,85,29.95,4.0,Calm,Calm,-,0.00,Snow,Light Snow,0,2014-01-27 10:29:00
3:45 AM,10.4,6.8,85,29.94,2.5,Calm,Calm,-,0.00,Snow,Light Snow,0,2014-01-27 10:45:00
3:53 AM,10.9,7.0,84,30.04,2.5,Calm,Calm,-,0.00,Snow,Light Snow,0,2014-01-27 10:53:00
4:19 AM,10.4,6.8,85,29.94,3.0,Calm,Calm,-,0.00,Snow,Light Snow,0,2014-01-27 11:19:00
4:24 AM,10.4,6.8,85,29.94,1.8,SW,3.5,-,0.00,Snow,Light Snow,230,2014-01-27 11:24:00
4:41 AM,10.4,8.6,92,29.93,2.5,Calm,Calm,-,0.00,Snow,Light Snow,0,2014-01-27 11:41:00
4:53 AM,10.9,8.1,88,30.06,2.0,SW,3.5,-,0.00,Snow,Light Snow,220,2014-01-27 11:53:00
4:59 AM,10.4,8.6,92,29.93,1.8,Calm,Calm,-,0.00,Snow,Light Snow,0,2014-01-27 11:59:00
5:32 AM,10.4,8.6,92,29.92,0.8,SSW,3.5,-,0.01,Snow,Light Snow,200,2014-01-27 12:32:00
5:53 AM,10.9,7.0,84,30.07,0.8,South,4.6,-,0.01,Snow,Light Snow,170,2014-01-27 12:53:00
6:27 AM,10.4,8.6,92,29.92,1.0,South,4.6,-,0.01,Snow,Light Snow,170,2014-01-27 13:27:00
6:53 AM,10.0,7.0,87,30.10,1.2,SSE,4.6,-,0.01,Snow,Light Snow,160,2014-01-27 13:53:00
7:15 AM,10.4,6.8,85,29.92,0.8,SSE,3.5,-,0.00,Snow,Light Snow,160,2014-01-27 14:15:00
7:28 AM,10.4,8.6,92,29.92,0.5,Calm,Calm,-,0.00,Fog-Snow,Snow,0,2014-01-27 14:28:00
7:53 AM,10.9,8.1,88,30.12,0.2,Calm,Calm,-,0.01,Fog-Snow,Snow,0,2014-01-27 14:53:00
8:46 AM,10.4,8.6,92,29.94,0.5,South,3.5,-,0.02,Fog-Snow,Light Snow,190,2014-01-27 15:46:00
8:53 AM,10.9,8.1,88,30.14,0.5,SSW,3.5,-,0.02,Fog-Snow,Light Snow,200,2014-01-27 15:53:00
9:26 AM,10.4,8.6,92,29.95,0.2,Calm,Calm,-,0.01,Fog-Snow,Snow,0,2014-01-27 16:26:00
9:46 AM,12.2,8.6,85,29.95,0.5,Calm,Calm,-,0.01,Fog-Snow,Light Snow,0,2014-01-27 16:46:00
9:53 AM,12.0,9.0,88,30.15,0.5,Calm,Calm,-,0.01,Fog-Snow,Light Snow,0,2014-01-27 16:53:00
10:06 AM,12.2,8.6,85,29.95,0.8,Calm,Calm,-,0.00,Snow,Light Snow,0,2014-01-27 17:06:00
10:21 AM,12.2,8.6,85,29.95,0.5,NW,4.6,-,0.00,Fog-Snow,Light Snow,310,2014-01-27 17:21:00
10:39 AM,12.2,8.6,85,29.95,0.8,North,6.9,-,0.00,Snow,Light Snow,350,2014-01-27 17:39:00
10:46 AM,12.2,8.6,85,29.95,0.5,North,9.2,-,0.00,Fog-Snow,Light Snow,360,2014-01-27 17:46:00
10:53 AM,12.0,7.0,80,30.16,0.5,North,6.9,-,0.00,Snow,Snow,360,2014-01-27 17:53:00
11:11 AM,12.2,6.8,79,29.95,0.8,NNE,5.8,-,0.00,Snow,Light Snow,20,2014-01-27 18:11:00
11:19 AM,12.2,6.8,79,29.95,1.2,NNE,4.6,-,0.00,Snow,Light Snow,20,2014-01-27 18:19:00
11:27 AM,12.2,6.8,79,29.95,2.0,North,4.6,-,0.00,Snow,Light Snow,10,2014-01-27 18:27:00
11:49 AM,12.2,8.6,85,29.94,4.0,NNE,3.5,-,0.00,,Haze,30,2014-01-27 18:49:00
11:53 AM,12.9,8.1,81,30.14,2.5,Calm,Calm,-,0.00,Snow,Light Snow,0,2014-01-27 18:53:00
12:01 PM,12.2,8.6,85,29.94,1.0,Calm,Calm,-,0.00,Snow,Light Snow,0,2014-01-27 19:01:00
12:05 PM,12.2,8.6,85,29.94,0.8,Calm,Calm,-,0.00,Snow,Light Snow,0,2014-01-27 19:05:00
12:16 PM,12.2,6.8,79,29.94,0.5,Calm,Calm,-,0.00,Snow,Snow,0,2014-01-27 19:16:00
12:37 PM,12.2,6.8,79,29.93,0.5,NNW,5.8,-,0.01,Snow,Snow,330,2014-01-27 19:37:00
12:53 PM,12.0,7.0,80,30.13,0.5,NNW,9.2,-,0.01,Snow,Snow,330,2014-01-27 19:53:00
1:06 PM,12.2,6.8,79,29.92,0.8,NNW,8.1,-,0.00,Snow,Light Snow,340,2014-01-27 20:06:00
1:42 PM,12.2,6.8,79,29.91,0.5,North,8.1,-,0.00,Snow,Snow,350,2014-01-27 20:42:00
1:53 PM,10.9,6.1,81,30.13,0.5,North,16.1,-,0.00,Snow,Snow,350,2014-01-27 20:53:00
2:02 PM,10.4,5.0,79,29.91,1.0,NNW,17.3,-,0.00,Snow,Light Snow,340,2014-01-27 21:02:00
2:16 PM,10.4,5.0,79,29.91,0.8,North,12.7,-,0.00,Snow,Light Snow,350,2014-01-27 21:16:00
2:53 PM,10.9,6.1,81,30.13,0.8,North,12.7,-,0.00,Snow,Light Snow,360,2014-01-27 21:53:00
3:01 PM,10.4,5.0,79,29.92,1.2,North,13.8,-,0.00,Snow,Light Snow,360,2014-01-27 22:01:00
3:20 PM,10.4,5.0,79,29.92,0.8,North,13.8,-,0.00,Snow,Light Snow,360,2014-01-27 22:20:00
3:53 PM,10.0,5.0,80,30.14,0.8,North,15.0,-,0.00,Snow,Light Snow,360,2014-01-27 22:53:00
4:17 PM,10.4,5.0,79,29.94,2.0,North,11.5,-,0.00,Snow,Light Snow,360,2014-01-27 23:17:00
4:20 PM,10.4,5.0,79,29.93,4.0,North,11.5,-,0.00,Snow,Light Snow,360,2014-01-27 23:20:00
4:53 PM,9.0,6.1,88,30.17,1.8,North,9.2,-,0.00,Snow,Light Snow,350,2014-01-27 23:53:00
5:11 PM,8.6,6.8,92,29.95,3.0,NNW,8.1,-,0.00,Snow,Light Snow,330,2014-01-28 00:11:00
5:53 PM,8.1,3.9,83,30.19,10.0,NNW,6.9,-,0.00,,Overcast,340,2014-01-28 00:53:00
6:53 PM,5.0,1.9,87,30.23,10.0,NNW,5.8,-,N/A,,Overcast,330,2014-01-28 01:53:00
7:53 PM,3.9,1.0,88,30.25,10.0,NNW,8.1,-,N/A,,Overcast,340,2014-01-28 02:53:00
8:53 PM,1.9,-5.1,72,30.27,10.0,NNW,9.2,-,N/A,,Overcast,340,2014-01-28 03:53:00
9:53 PM,-7.1,-13.0,75,30.32,10.0,NNW,9.2,-,N/A,,Clear,330,2014-01-28 04:53:00
10:53 PM,-5.1,-14.1,65,30.32,10.0,NW,13.8,-,N/A,,Clear,310,2014-01-28 05:53:00
11:53 PM,-2.9,-13.0,62,30.30,10.0,WNW,13.8,-,N/A,,Clear,290,2014-01-28 06:53:00